Year,Month,Day,Hour,Minute,Value (Times are PST for temperature in C)
2017,06,24,00,00,14.00
2017,06,24,00,01,14.00
2017,06,24,00,02,13.90
2017,06,24,00,03,13.90
2017,06,24,00,04,13.90
2017,06,24,00,05,13.90
2017,06,24,00,06,13.90
2017,06,24,00,07,13.90
2017,06,24,00,08,13.90
2017,06,24,00,09,13.90
2017,06,24,00,10,13.90
2017,06,24,00,11,13.90
2017,06,24,00,12,13.90
2017,06,24,00,13,13.90
2017,06,24,00,14,13.90
2017,06,24,00,15,13.90
2017,06,24,00,16,14.00
2017,06,24,00,17,14.00
2017,06,24,00,18,14.00
2017,06,24,00,19,13.90
2017,06,24,00,20,14.00
2017,06,24,00,21,14.00
2017,06,24,00,22,14.00
2017,06,24,00,23,14.00
2017,06,24,00,24,14.00
2017,06,24,00,25,14.10
2017,06,24,00,26,14.20
2017,06,24,00,27,14.20
2017,06,24,00,28,14.20
2017,06,24,00,29,14.30
2017,06,24,00,30,14.40
2017,06,24,00,31,14.50
2017,06,24,00,32,14.60
2017,06,24,00,33,14.70
2017,06,24,00,34,14.80
2017,06,24,00,35,14.80
2017,06,24,00,36,14.90
2017,06,24,00,37,15.00
2017,06,24,00,38,15.00
2017,06,24,00,39,15.00
2017,06,24,00,40,15.00
2017,06,24,00,41,15.00
2017,06,24,00,42,15.00
2017,06,24,00,43,15.00
2017,06,24,00,44,15.00
2017,06,24,00,45,15.00
2017,06,24,00,46,15.00
2017,06,24,00,47,15.00
2017,06,24,00,48,15.10
2017,06,24,00,49,15.20
2017,06,24,00,50,15.30
2017,06,24,00,51,15.30
2017,06,24,00,52,15.40
2017,06,24,00,53,15.50
2017,06,24,00,54,15.50
2017,06,24,00,55,15.60
2017,06,24,00,56,15.60
2017,06,24,00,57,15.60
2017,06,24,00,58,15.60
2017,06,24,00,59,15.70
2017,06,24,01,00,15.70
2017,06,24,01,01,15.80
2017,06,24,01,02,15.80
2017,06,24,01,03,15.80
2017,06,24,01,04,15.90
2017,06,24,01,05,15.90
2017,06,24,01,06,16.00
2017,06,24,01,07,16.00
2017,06,24,01,08,16.10
2017,06,24,01,09,16.10
2017,06,24,01,10,16.10
2017,06,24,01,11,16.10
2017,06,24,01,12,16.20
2017,06,24,01,13,16.20
2017,06,24,01,14,16.20
2017,06,24,01,15,16.20
2017,06,24,01,16,16.20
2017,06,24,01,17,16.20
2017,06,24,01,18,16.20
2017,06,24,01,19,16.20
2017,06,24,01,20,16.20
2017,06,24,01,21,16.20
2017,06,24,01,22,16.20
2017,06,24,01,23,16.20
2017,06,24,01,24,16.20
2017,06,24,01,25,16.30
2017,06,24,01,26,16.20
2017,06,24,01,27,16.20
2017,06,24,01,28,16.20
2017,06,24,01,29,16.20
2017,06,24,01,30,16.20
2017,06,24,01,31,16.20
2017,06,24,01,32,16.10
2017,06,24,01,33,16.10
2017,06,24,01,34,16.10
2017,06,24,01,35,16.10
2017,06,24,01,36,16.00
2017,06,24,01,37,16.00
2017,06,24,01,38,16.00
2017,06,24,01,39,15.90
2017,06,24,01,40,15.90
2017,06,24,01,41,15.90
2017,06,24,01,42,15.90
2017,06,24,01,43,15.90
2017,06,24,01,44,15.80
2017,06,24,01,45,15.80
2017,06,24,01,46,15.80
2017,06,24,01,47,15.80
2017,06,24,01,48,15.80
2017,06,24,01,49,15.70
2017,06,24,01,50,15.70
2017,06,24,01,51,15.70
2017,06,24,01,52,15.70
2017,06,24,01,53,15.70
2017,06,24,01,54,15.70
2017,06,24,01,55,15.70
2017,06,24,01,56,15.70
2017,06,24,01,57,15.70
2017,06,24,01,58,15.70
2017,06,24,01,59,15.60
2017,06,24,02,00,15.60
2017,06,24,02,01,15.70
2017,06,24,02,02,15.70
2017,06,24,02,03,15.70
2017,06,24,02,04,15.70
2017,06,24,02,05,15.70
2017,06,24,02,06,15.70
2017,06,24,02,07,15.70
2017,06,24,02,08,15.70
2017,06,24,02,09,15.70
2017,06,24,02,10,15.80
2017,06,24,02,11,15.80
2017,06,24,02,12,15.80
2017,06,24,02,13,15.80
2017,06,24,02,14,15.80
2017,06,24,02,15,15.80
2017,06,24,02,16,15.70
2017,06,24,02,17,15.70
2017,06,24,02,18,15.70
2017,06,24,02,19,15.70
2017,06,24,02,20,15.70
2017,06,24,02,21,15.60
2017,06,24,02,22,15.60
2017,06,24,02,23,15.60
2017,06,24,02,24,15.50
2017,06,24,02,25,15.50
2017,06,24,02,26,15.40
2017,06,24,02,27,15.40
2017,06,24,02,28,15.40
2017,06,24,02,29,15.30
2017,06,24,02,30,15.30
2017,06,24,02,31,15.30
2017,06,24,02,32,15.20
2017,06,24,02,33,15.10
2017,06,24,02,34,15.00
2017,06,24,02,35,15.00
2017,06,24,02,36,15.00
2017,06,24,02,37,15.00
2017,06,24,02,38,15.00
2017,06,24,02,39,15.00
2017,06,24,02,40,15.00
2017,06,24,02,41,15.00
2017,06,24,02,42,15.00
2017,06,24,02,43,15.00
2017,06,24,02,44,15.00
2017,06,24,02,45,15.00
2017,06,24,02,46,15.00
2017,06,24,02,47,15.00
2017,06,24,02,48,15.00
2017,06,24,02,49,15.00
2017,06,24,02,50,15.00
2017,06,24,02,51,15.00
2017,06,24,02,52,15.00
2017,06,24,02,53,15.00
2017,06,24,02,54,15.00
2017,06,24,02,55,15.00
2017,06,24,02,56,15.00
2017,06,24,02,57,15.00
2017,06,24,02,58,15.00
2017,06,24,02,59,15.00
2017,06,24,03,00,15.00
2017,06,24,03,01,15.00
2017,06,24,03,02,15.00
2017,06,24,03,03,15.00
2017,06,24,03,04,15.00
2017,06,24,03,05,15.00
2017,06,24,03,06,15.00
2017,06,24,03,07,15.00
2017,06,24,03,08,15.00
2017,06,24,03,09,15.00
2017,06,24,03,10,15.00
2017,06,24,03,11,15.00
2017,06,24,03,12,15.00
2017,06,24,03,13,15.00
2017,06,24,03,14,15.00
2017,06,24,03,15,15.00
2017,06,24,03,16,15.00
2017,06,24,03,17,15.00
2017,06,24,03,18,15.00
2017,06,24,03,19,15.00
2017,06,24,03,20,15.00
2017,06,24,03,21,15.00
2017,06,24,03,22,15.00
2017,06,24,03,23,15.00
2017,06,24,03,24,15.00
2017,06,24,03,25,15.00
2017,06,24,03,26,15.00
2017,06,24,03,27,15.00
2017,06,24,03,28,15.00
2017,06,24,03,29,15.00
2017,06,24,03,30,15.00
2017,06,24,03,31,15.00
2017,06,24,03,32,15.00
2017,06,24,03,33,15.00
2017,06,24,03,34,15.00
2017,06,24,03,35,14.90
2017,06,24,03,36,14.80
2017,06,24,03,37,14.80
2017,06,24,03,38,14.70
2017,06,24,03,39,14.70
2017,06,24,03,40,14.70
2017,06,24,03,41,14.60
2017,06,24,03,42,14.60
2017,06,24,03,43,14.60
2017,06,24,03,44,14.50
2017,06,24,03,45,14.50
2017,06,24,03,46,14.50
2017,06,24,03,47,14.40
2017,06,24,03,48,14.40
2017,06,24,03,49,14.40
2017,06,24,03,50,14.40
2017,06,24,03,51,14.30
2017,06,24,03,52,14.30
2017,06,24,03,53,14.30
2017,06,24,03,54,14.30
2017,06,24,03,55,14.30
2017,06,24,03,56,14.30
2017,06,24,03,57,14.30
2017,06,24,03,58,14.20
2017,06,24,03,59,14.20
2017,06,24,04,00,14.20
2017,06,24,04,01,14.20
2017,06,24,04,02,14.20
2017,06,24,04,03,14.20
2017,06,24,04,04,14.20
2017,06,24,04,05,14.10
2017,06,24,04,06,14.10
2017,06,24,04,07,14.10
2017,06,24,04,08,14.10
2017,06,24,04,09,14.10
2017,06,24,04,10,14.10
2017,06,24,04,11,14.10
2017,06,24,04,12,14.10
2017,06,24,04,13,14.10
2017,06,24,04,14,14.00
2017,06,24,04,15,14.00
2017,06,24,04,16,14.00
2017,06,24,04,17,14.00
2017,06,24,04,18,13.90
2017,06,24,04,19,13.90
2017,06,24,04,20,13.90
2017,06,24,04,21,13.90
2017,06,24,04,22,13.90
2017,06,24,04,23,13.90
2017,06,24,04,24,13.90
2017,06,24,04,25,13.90
2017,06,24,04,26,13.90
2017,06,24,04,27,13.90
2017,06,24,04,28,13.90
2017,06,24,04,29,13.80
2017,06,24,04,30,13.80
2017,06,24,04,31,13.80
2017,06,24,04,32,13.80
2017,06,24,04,33,13.80
2017,06,24,04,34,13.80
2017,06,24,04,35,13.80
2017,06,24,04,36,13.80
2017,06,24,04,37,13.80
2017,06,24,04,38,13.80
2017,06,24,04,39,13.80
2017,06,24,04,40,13.70
2017,06,24,04,41,13.80
2017,06,24,04,42,13.80
2017,06,24,04,43,13.80
2017,06,24,04,44,13.80
2017,06,24,04,45,13.80
2017,06,24,04,46,13.80
2017,06,24,04,47,13.80
2017,06,24,04,48,13.70
2017,06,24,04,49,13.70
2017,06,24,04,50,13.70
2017,06,24,04,51,13.70
2017,06,24,04,52,13.70
2017,06,24,04,53,13.70
2017,06,24,04,54,13.70
2017,06,24,04,55,13.70
2017,06,24,04,56,13.70
2017,06,24,04,57,13.60
2017,06,24,04,58,13.60
2017,06,24,04,59,13.60
2017,06,24,05,00,13.60
2017,06,24,05,01,13.60
2017,06,24,05,02,13.50
2017,06,24,05,03,13.50
2017,06,24,05,04,13.50
2017,06,24,05,05,13.50
2017,06,24,05,06,13.50
2017,06,24,05,07,13.40
2017,06,24,05,08,13.40
2017,06,24,05,09,13.40
2017,06,24,05,10,13.40
2017,06,24,05,11,13.40
2017,06,24,05,12,13.40
2017,06,24,05,13,13.40
2017,06,24,05,14,13.30
2017,06,24,05,15,13.30
2017,06,24,05,16,13.30
2017,06,24,05,17,13.30
2017,06,24,05,18,13.30
2017,06,24,05,19,13.30
2017,06,24,05,20,13.20
2017,06,24,05,21,13.20
2017,06,24,05,22,13.20
2017,06,24,05,23,13.20
2017,06,24,05,24,13.20
2017,06,24,05,25,13.10
2017,06,24,05,26,13.10
2017,06,24,05,27,13.10
2017,06,24,05,28,13.10
2017,06,24,05,29,13.10
2017,06,24,05,30,13.10
2017,06,24,05,31,13.10
2017,06,24,05,32,13.10
2017,06,24,05,33,13.00
2017,06,24,05,34,13.00
2017,06,24,05,35,13.00
2017,06,24,05,36,13.00
2017,06,24,05,37,13.00
2017,06,24,05,38,13.00
2017,06,24,05,39,13.00
2017,06,24,05,40,13.00
2017,06,24,05,41,13.00
2017,06,24,05,42,13.00
2017,06,24,05,43,13.00
2017,06,24,05,44,13.00
2017,06,24,05,45,13.00
2017,06,24,05,46,13.00
2017,06,24,05,47,12.90
2017,06,24,05,48,12.90
2017,06,24,05,49,12.90
2017,06,24,05,50,12.90
2017,06,24,05,51,12.90
2017,06,24,05,52,12.90
2017,06,24,05,53,12.90
2017,06,24,05,54,12.90
2017,06,24,05,55,12.90
2017,06,24,05,56,12.90
2017,06,24,05,57,12.80
2017,06,24,05,58,12.80
2017,06,24,05,59,12.80
2017,06,24,06,00,12.80
2017,06,24,06,01,12.80
2017,06,24,06,02,12.80
2017,06,24,06,03,12.80
2017,06,24,06,04,12.80
2017,06,24,06,05,12.80
2017,06,24,06,06,12.80
2017,06,24,06,07,12.80
2017,06,24,06,08,12.80
2017,06,24,06,09,12.80
2017,06,24,06,10,12.80
2017,06,24,06,11,12.80
2017,06,24,06,12,12.80
2017,06,24,06,13,12.80
2017,06,24,06,14,12.80
2017,06,24,06,15,12.80
2017,06,24,06,16,12.80
2017,06,24,06,17,12.80
2017,06,24,06,18,12.80
2017,06,24,06,19,12.80
2017,06,24,06,20,12.80
2017,06,24,06,21,12.80
2017,06,24,06,22,12.80
2017,06,24,06,23,12.80
2017,06,24,06,24,12.80
2017,06,24,06,25,12.80
2017,06,24,06,26,12.80
2017,06,24,06,27,12.80
2017,06,24,06,28,12.80
2017,06,24,06,29,12.80
2017,06,24,06,30,12.80
2017,06,24,06,31,12.80
2017,06,24,06,32,12.80
2017,06,24,06,33,12.80
2017,06,24,06,34,12.80
2017,06,24,06,35,12.80
2017,06,24,06,36,12.80
2017,06,24,06,37,12.80
2017,06,24,06,38,12.80
2017,06,24,06,39,12.80
2017,06,24,06,40,12.90
2017,06,24,06,41,12.90
2017,06,24,06,42,12.90
2017,06,24,06,43,12.90
2017,06,24,06,44,12.90
2017,06,24,06,45,12.90
2017,06,24,06,46,12.90
2017,06,24,06,47,12.90
2017,06,24,06,48,12.90
2017,06,24,06,49,12.90
2017,06,24,06,50,12.90
2017,06,24,06,51,12.90
2017,06,24,06,52,12.90
2017,06,24,06,53,13.00
2017,06,24,06,54,13.00
2017,06,24,06,55,13.00
2017,06,24,06,56,13.10
2017,06,24,06,57,13.10
2017,06,24,06,58,13.10
2017,06,24,06,59,13.10
2017,06,24,07,00,13.10
2017,06,24,07,01,13.20
2017,06,24,07,02,13.20
2017,06,24,07,03,13.20
2017,06,24,07,04,13.20
2017,06,24,07,05,13.20
2017,06,24,07,06,13.20
2017,06,24,07,07,13.30
2017,06,24,07,08,13.30
2017,06,24,07,09,13.30
2017,06,24,07,10,13.40
2017,06,24,07,11,13.40
2017,06,24,07,12,13.40
2017,06,24,07,13,13.40
2017,06,24,07,14,13.50
2017,06,24,07,15,13.50
2017,06,24,07,16,13.60
2017,06,24,07,17,13.60
2017,06,24,07,18,13.60
2017,06,24,07,19,13.60
2017,06,24,07,20,13.60
2017,06,24,07,21,13.70
2017,06,24,07,22,13.70
2017,06,24,07,23,13.70
2017,06,24,07,24,13.70
2017,06,24,07,25,13.70
2017,06,24,07,26,13.80
2017,06,24,07,27,13.80
2017,06,24,07,28,13.80
2017,06,24,07,29,13.80
2017,06,24,07,30,13.80
2017,06,24,07,31,13.80
2017,06,24,07,32,13.90
2017,06,24,07,33,13.90
2017,06,24,07,34,14.00
2017,06,24,07,35,14.10
2017,06,24,07,36,14.20
2017,06,24,07,37,14.30
2017,06,24,07,38,14.40
2017,06,24,07,39,14.50
2017,06,24,07,40,14.50
2017,06,24,07,41,14.60
2017,06,24,07,42,14.70
2017,06,24,07,43,14.80
2017,06,24,07,44,14.80
2017,06,24,07,45,15.00
2017,06,24,07,46,15.00
2017,06,24,07,47,15.00
2017,06,24,07,48,15.00
2017,06,24,07,49,15.00
2017,06,24,07,50,15.00
2017,06,24,07,51,15.00
2017,06,24,07,52,15.00
2017,06,24,07,53,15.00
2017,06,24,07,54,15.00
2017,06,24,07,55,15.00
2017,06,24,07,56,15.00
2017,06,24,07,57,15.00
2017,06,24,07,58,15.00
2017,06,24,07,59,15.00
2017,06,24,08,00,15.00
2017,06,24,08,01,15.00
2017,06,24,08,02,15.10
2017,06,24,08,03,15.10
2017,06,24,08,04,15.20
2017,06,24,08,05,15.20
2017,06,24,08,06,15.20
2017,06,24,08,07,15.20
2017,06,24,08,08,15.20
2017,06,24,08,09,15.30
2017,06,24,08,10,15.30
2017,06,24,08,11,15.30
2017,06,24,08,12,15.40
2017,06,24,08,13,15.40
2017,06,24,08,14,15.40
2017,06,24,08,15,15.40
2017,06,24,08,16,15.50
2017,06,24,08,17,15.50
2017,06,24,08,18,15.60
2017,06,24,08,19,15.60
2017,06,24,08,20,15.60
2017,06,24,08,21,15.60
2017,06,24,08,22,15.70
2017,06,24,08,23,15.70
2017,06,24,08,24,15.70
2017,06,24,08,25,15.70
2017,06,24,08,26,15.70
2017,06,24,08,27,15.80
2017,06,24,08,28,15.80
2017,06,24,08,29,15.80
2017,06,24,08,30,15.80
2017,06,24,08,31,15.90
2017,06,24,08,32,15.90
2017,06,24,08,33,15.90
2017,06,24,08,34,15.90
2017,06,24,08,35,16.00
2017,06,24,08,36,16.00
2017,06,24,08,37,16.00
2017,06,24,08,38,16.10
2017,06,24,08,39,16.10
2017,06,24,08,40,16.10
2017,06,24,08,41,16.10
2017,06,24,08,42,16.10
2017,06,24,08,43,16.10
2017,06,24,08,44,16.20
2017,06,24,08,45,16.20
2017,06,24,08,46,16.20
2017,06,24,08,47,16.20
2017,06,24,08,48,16.20
2017,06,24,08,49,16.30
2017,06,24,08,50,16.30
2017,06,24,08,51,16.30
2017,06,24,08,52,16.30
2017,06,24,08,53,16.30
2017,06,24,08,54,16.40
2017,06,24,08,55,16.40
2017,06,24,08,56,16.40
2017,06,24,08,57,16.50
2017,06,24,08,58,16.50
2017,06,24,08,59,16.60
2017,06,24,09,00,16.60
2017,06,24,09,01,16.70
2017,06,24,09,02,16.70
2017,06,24,09,03,16.70
2017,06,24,09,04,16.70
2017,06,24,09,05,16.80
2017,06,24,09,06,16.80
2017,06,24,09,07,16.80
2017,06,24,09,08,16.80
2017,06,24,09,09,16.90
2017,06,24,09,10,16.90
2017,06,24,09,11,16.90
2017,06,24,09,12,17.00
2017,06,24,09,13,17.10
2017,06,24,09,14,17.20
2017,06,24,09,15,17.20
2017,06,24,09,16,17.30
2017,06,24,09,17,17.30
2017,06,24,09,18,17.40
2017,06,24,09,19,17.50
2017,06,24,09,20,17.60
2017,06,24,09,21,17.60
2017,06,24,09,22,17.70
2017,06,24,09,23,17.80
2017,06,24,09,24,17.80
2017,06,24,09,25,17.90
2017,06,24,09,26,17.90
2017,06,24,09,27,18.00
2017,06,24,09,28,18.00
2017,06,24,09,29,18.10
2017,06,24,09,30,18.20
2017,06,24,09,31,18.20
2017,06,24,09,32,18.30
2017,06,24,09,33,18.40
2017,06,24,09,34,18.50
2017,06,24,09,35,18.50
2017,06,24,09,36,18.60
2017,06,24,09,37,18.70
2017,06,24,09,38,18.80
2017,06,24,09,39,18.90
2017,06,24,09,40,19.00
2017,06,24,09,41,19.10
2017,06,24,09,42,19.20
2017,06,24,09,43,19.20
2017,06,24,09,44,19.30
2017,06,24,09,45,19.30
2017,06,24,09,46,19.40
2017,06,24,09,47,19.50
2017,06,24,09,48,19.50
2017,06,24,09,49,19.60
2017,06,24,09,50,19.60
2017,06,24,09,51,19.60
2017,06,24,09,52,19.60
2017,06,24,09,53,19.60
2017,06,24,09,54,19.70
2017,06,24,09,55,19.70
2017,06,24,09,56,19.70
2017,06,24,09,57,19.70
2017,06,24,09,58,19.80
2017,06,24,09,59,19.80
2017,06,24,10,00,19.90
2017,06,24,10,01,19.90
2017,06,24,10,02,19.90
2017,06,24,10,03,19.80
2017,06,24,10,04,19.80
2017,06,24,10,05,19.70
2017,06,24,10,06,19.60
2017,06,24,10,07,19.60
2017,06,24,10,08,19.60
2017,06,24,10,09,19.60
2017,06,24,10,10,19.60
2017,06,24,10,11,19.70
2017,06,24,10,12,19.70
2017,06,24,10,13,19.80
2017,06,24,10,14,19.80
2017,06,24,10,15,19.80
2017,06,24,10,16,19.90
2017,06,24,10,17,19.90
2017,06,24,10,18,20.00
2017,06,24,10,19,20.00
2017,06,24,10,20,20.00
2017,06,24,10,21,19.90
2017,06,24,10,22,19.90
2017,06,24,10,23,19.90
2017,06,24,10,24,20.00
2017,06,24,10,25,20.00
2017,06,24,10,26,20.10
2017,06,24,10,27,20.10
2017,06,24,10,28,20.20
2017,06,24,10,29,20.30
2017,06,24,10,30,20.30
2017,06,24,10,31,20.30
2017,06,24,10,32,20.40
2017,06,24,10,33,20.40
2017,06,24,10,34,20.40
2017,06,24,10,35,20.40
2017,06,24,10,36,20.40
2017,06,24,10,37,20.40
2017,06,24,10,38,20.40
2017,06,24,10,39,20.40
2017,06,24,10,40,20.40
2017,06,24,10,41,20.30
2017,06,24,10,42,20.40
2017,06,24,10,43,20.30
2017,06,24,10,44,20.30
2017,06,24,10,45,20.30
2017,06,24,10,46,20.40
2017,06,24,10,47,20.40
2017,06,24,10,48,20.40
2017,06,24,10,49,20.50
2017,06,24,10,50,20.60
2017,06,24,10,51,20.60
2017,06,24,10,52,20.80
2017,06,24,10,53,20.80
2017,06,24,10,54,21.00
2017,06,24,10,55,21.10
2017,06,24,10,56,21.20
2017,06,24,10,57,21.20
2017,06,24,10,58,21.20
2017,06,24,10,59,21.20
2017,06,24,11,00,21.10
2017,06,24,11,01,21.00
2017,06,24,11,02,20.90
2017,06,24,11,03,20.80
2017,06,24,11,04,20.70
2017,06,24,11,05,20.60
2017,06,24,11,06,20.50
2017,06,24,11,07,20.40
2017,06,24,11,08,20.40
2017,06,24,11,09,20.30
2017,06,24,11,10,20.30
2017,06,24,11,11,20.30
2017,06,24,11,12,20.20
2017,06,24,11,13,20.20
2017,06,24,11,14,20.20
2017,06,24,11,15,20.20
2017,06,24,11,16,20.30
2017,06,24,11,17,20.30
2017,06,24,11,18,20.20
2017,06,24,11,19,20.20
2017,06,24,11,20,20.20
2017,06,24,11,21,20.20
2017,06,24,11,22,20.20
2017,06,24,11,23,20.10
2017,06,24,11,24,20.10
2017,06,24,11,25,20.10
2017,06,24,11,26,20.10
2017,06,24,11,27,20.00
2017,06,24,11,28,20.00
2017,06,24,11,29,20.00
2017,06,24,11,30,19.90
2017,06,24,11,31,20.00
2017,06,24,11,32,20.00
2017,06,24,11,33,20.00
2017,06,24,11,34,20.10
2017,06,24,11,35,20.10
2017,06,24,11,36,20.10
2017,06,24,11,37,20.10
2017,06,24,11,38,20.10
2017,06,24,11,39,20.10
2017,06,24,11,40,20.20
2017,06,24,11,41,20.20
2017,06,24,11,42,20.30
2017,06,24,11,43,20.40
2017,06,24,11,44,20.40
2017,06,24,11,45,20.50
2017,06,24,11,46,20.60
2017,06,24,11,47,20.70
2017,06,24,11,48,20.80
2017,06,24,11,49,20.80
2017,06,24,11,50,20.90
2017,06,24,11,51,21.00
2017,06,24,11,52,21.10
2017,06,24,11,53,21.20
2017,06,24,11,54,21.40
2017,06,24,11,55,21.50
2017,06,24,11,56,21.70
2017,06,24,11,57,21.80
2017,06,24,11,58,22.00
2017,06,24,11,59,22.10
2017,06,24,12,00,22.30
2017,06,24,12,01,22.50
2017,06,24,12,02,22.60
2017,06,24,12,03,22.80
2017,06,24,12,04,23.00
2017,06,24,12,05,23.10
2017,06,24,12,06,23.30
2017,06,24,12,07,23.40
2017,06,24,12,08,23.60
2017,06,24,12,09,23.80
2017,06,24,12,10,23.90
2017,06,24,12,11,24.00
2017,06,24,12,12,24.20
2017,06,24,12,13,24.20
2017,06,24,12,14,24.30
2017,06,24,12,15,24.40
2017,06,24,12,16,24.50
2017,06,24,12,17,24.60
2017,06,24,12,18,24.60
2017,06,24,12,19,24.60
2017,06,24,12,20,24.50
2017,06,24,12,21,24.50
2017,06,24,12,22,24.50
2017,06,24,12,23,24.50
2017,06,24,12,24,24.60
2017,06,24,12,25,24.60
2017,06,24,12,26,24.60
2017,06,24,12,27,24.60
2017,06,24,12,28,24.70
2017,06,24,12,29,24.80
2017,06,24,12,30,24.90
2017,06,24,12,31,25.00
2017,06,24,12,32,25.10
2017,06,24,12,33,25.10
2017,06,24,12,34,25.20
2017,06,24,12,35,25.30
2017,06,24,12,36,25.30
2017,06,24,12,37,25.30
2017,06,24,12,38,25.30
2017,06,24,12,39,25.30
2017,06,24,12,40,25.30
2017,06,24,12,41,25.40
2017,06,24,12,42,25.30
2017,06,24,12,43,25.30
2017,06,24,12,44,25.30
2017,06,24,12,45,25.30
2017,06,24,12,46,25.30
2017,06,24,12,47,25.30
2017,06,24,12,48,25.30
2017,06,24,12,49,25.30
2017,06,24,12,50,25.30
2017,06,24,12,51,25.20
2017,06,24,12,52,25.30
2017,06,24,12,53,25.20
2017,06,24,12,54,25.20
2017,06,24,12,55,25.10
2017,06,24,12,56,25.00
2017,06,24,12,57,24.90
2017,06,24,12,58,24.90
2017,06,24,12,59,24.80
2017,06,24,13,00,24.70
2017,06,24,13,01,24.50
2017,06,24,13,02,24.40
2017,06,24,13,03,24.30
2017,06,24,13,04,24.10
2017,06,24,13,05,24.00
2017,06,24,13,06,23.90
2017,06,24,13,07,23.80
2017,06,24,13,08,23.70
2017,06,24,13,09,23.50
2017,06,24,13,10,23.40
2017,06,24,13,11,23.40
2017,06,24,13,12,23.30
2017,06,24,13,13,23.30
2017,06,24,13,14,23.30
2017,06,24,13,15,23.30
2017,06,24,13,16,23.30
2017,06,24,13,17,23.30
2017,06,24,13,18,23.40
2017,06,24,13,19,23.40
2017,06,24,13,20,23.50
2017,06,24,13,21,23.60
2017,06,24,13,22,23.70
2017,06,24,13,23,23.80
2017,06,24,13,24,23.90
2017,06,24,13,25,24.10
2017,06,24,13,26,24.20
2017,06,24,13,27,24.40
2017,06,24,13,28,24.60
2017,06,24,13,29,24.70
2017,06,24,13,30,24.90
2017,06,24,13,31,25.10
2017,06,24,13,32,25.20
2017,06,24,13,33,25.40
2017,06,24,13,34,25.60
2017,06,24,13,35,25.70
2017,06,24,13,36,25.80
2017,06,24,13,37,25.90
2017,06,24,13,38,26.00
2017,06,24,13,39,26.00
2017,06,24,13,40,26.10
2017,06,24,13,41,26.20
2017,06,24,13,42,26.30
2017,06,24,13,43,26.40
2017,06,24,13,44,26.40
2017,06,24,13,45,26.50
2017,06,24,13,46,26.40
2017,06,24,13,47,26.40
2017,06,24,13,48,26.30
2017,06,24,13,49,26.30
2017,06,24,13,50,26.40
2017,06,24,13,51,26.40
2017,06,24,13,52,26.40
2017,06,24,13,53,26.50
2017,06,24,13,54,26.60
2017,06,24,13,55,26.60
2017,06,24,13,56,26.70
2017,06,24,13,57,26.70
2017,06,24,13,58,26.80
2017,06,24,13,59,26.90
2017,06,24,14,00,27.00
2017,06,24,14,01,27.20
2017,06,24,14,02,27.30
2017,06,24,14,03,27.40
2017,06,24,14,04,27.50
2017,06,24,14,05,27.60
2017,06,24,14,06,27.70
2017,06,24,14,07,27.80
2017,06,24,14,08,27.90
2017,06,24,14,09,28.00
2017,06,24,14,10,28.10
2017,06,24,14,11,28.20
2017,06,24,14,12,28.10
2017,06,24,14,13,28.10
2017,06,24,14,14,28.10
2017,06,24,14,15,28.10
2017,06,24,14,16,28.10
2017,06,24,14,17,28.00
2017,06,24,14,18,27.90
2017,06,24,14,19,27.90
2017,06,24,14,20,27.90
2017,06,24,14,21,27.90
2017,06,24,14,22,27.90
2017,06,24,14,23,28.00
2017,06,24,14,24,28.00
2017,06,24,14,25,28.10
2017,06,24,14,26,28.10
2017,06,24,14,27,28.20
2017,06,24,14,28,28.20
2017,06,24,14,29,28.20
2017,06,24,14,30,28.20
2017,06,24,14,31,28.20
2017,06,24,14,32,28.20
2017,06,24,14,33,28.30
2017,06,24,14,34,28.40
2017,06,24,14,35,28.40
2017,06,24,14,36,28.50
2017,06,24,14,37,28.50
2017,06,24,14,38,28.50
2017,06,24,14,39,28.50
2017,06,24,14,40,28.60
2017,06,24,14,41,28.60
2017,06,24,14,42,28.70
2017,06,24,14,43,28.70
2017,06,24,14,44,28.80
2017,06,24,14,45,28.80
2017,06,24,14,46,28.90
2017,06,24,14,47,28.90
2017,06,24,14,48,28.90
2017,06,24,14,49,28.90
2017,06,24,14,50,28.90
2017,06,24,14,51,28.90
2017,06,24,14,52,28.90
2017,06,24,14,53,29.00
2017,06,24,14,54,29.10
2017,06,24,14,55,29.10
2017,06,24,14,56,29.20
2017,06,24,14,57,29.20
2017,06,24,14,58,29.30
2017,06,24,14,59,29.40
2017,06,24,15,00,29.40
2017,06,24,15,01,29.50
2017,06,24,15,02,29.50
2017,06,24,15,03,29.60
2017,06,24,15,04,29.60
2017,06,24,15,05,29.60
2017,06,24,15,06,29.70
2017,06,24,15,07,29.70
2017,06,24,15,08,29.80
2017,06,24,15,09,29.70
2017,06,24,15,10,29.50
2017,06,24,15,11,29.40
2017,06,24,15,12,29.40
2017,06,24,15,13,29.30
2017,06,24,15,14,29.40
2017,06,24,15,15,29.40
2017,06,24,15,16,29.40
2017,06,24,15,17,29.40
2017,06,24,15,18,29.40
2017,06,24,15,19,29.40
2017,06,24,15,20,29.30
2017,06,24,15,21,29.30
2017,06,24,15,22,29.30
2017,06,24,15,23,29.20
2017,06,24,15,24,29.20
2017,06,24,15,25,29.20
2017,06,24,15,26,29.10
2017,06,24,15,27,29.00
2017,06,24,15,28,28.90
2017,06,24,15,29,28.80
2017,06,24,15,30,28.70
2017,06,24,15,31,28.60
2017,06,24,15,32,28.50
2017,06,24,15,33,28.30
2017,06,24,15,34,28.10
2017,06,24,15,35,27.80
2017,06,24,15,36,27.50
2017,06,24,15,37,27.30
2017,06,24,15,38,27.10
2017,06,24,15,39,26.80
2017,06,24,15,40,26.70
2017,06,24,15,41,26.50
2017,06,24,15,42,26.40
2017,06,24,15,43,26.20
2017,06,24,15,44,26.10
2017,06,24,15,45,25.90
2017,06,24,15,46,25.90
2017,06,24,15,47,25.90
2017,06,24,15,48,25.90
2017,06,24,15,49,25.80
2017,06,24,15,50,25.80
2017,06,24,15,51,25.80
2017,06,24,15,52,25.70
2017,06,24,15,53,25.70
2017,06,24,15,54,25.60
2017,06,24,15,55,25.60
2017,06,24,15,56,25.60
2017,06,24,15,57,25.60
2017,06,24,15,58,25.60
2017,06,24,15,59,25.60
2017,06,24,16,00,25.70
2017,06,24,16,01,25.70
2017,06,24,16,02,25.70
2017,06,24,16,03,25.70
2017,06,24,16,04,25.70
2017,06,24,16,05,25.70
2017,06,24,16,06,25.60
2017,06,24,16,07,25.50
2017,06,24,16,08,25.40
2017,06,24,16,09,25.20
2017,06,24,16,10,25.10
2017,06,24,16,11,25.00
2017,06,24,16,12,24.80
2017,06,24,16,13,24.80
2017,06,24,16,14,24.70
2017,06,24,16,15,24.70
2017,06,24,16,16,24.70
2017,06,24,16,17,24.80
2017,06,24,16,18,24.80
2017,06,24,16,19,24.90
2017,06,24,16,20,24.90
2017,06,24,16,21,25.00
2017,06,24,16,22,25.10
2017,06,24,16,23,25.20
2017,06,24,16,24,25.30
2017,06,24,16,25,25.40
2017,06,24,16,26,25.40
2017,06,24,16,27,25.50
2017,06,24,16,28,25.50
2017,06,24,16,29,25.50
2017,06,24,16,30,25.60
2017,06,24,16,31,25.60
2017,06,24,16,32,25.60
2017,06,24,16,33,25.60
2017,06,24,16,34,25.70
2017,06,24,16,35,25.70
2017,06,24,16,36,25.80
2017,06,24,16,37,25.90
2017,06,24,16,38,26.00
2017,06,24,16,39,26.10
2017,06,24,16,40,26.30
2017,06,24,16,41,26.40
2017,06,24,16,42,26.60
2017,06,24,16,43,26.70
2017,06,24,16,44,26.80
2017,06,24,16,45,26.80
2017,06,24,16,46,26.90
2017,06,24,16,47,26.90
2017,06,24,16,48,27.00
2017,06,24,16,49,27.10
2017,06,24,16,50,27.10
2017,06,24,16,51,27.20
2017,06,24,16,52,27.20
2017,06,24,16,53,27.30
2017,06,24,16,54,27.30
2017,06,24,16,55,27.30
2017,06,24,16,56,27.30
2017,06,24,16,57,27.30
2017,06,24,16,58,27.30
2017,06,24,16,59,27.30
2017,06,24,17,00,27.30
2017,06,24,17,01,27.30
2017,06,24,17,02,27.30
2017,06,24,17,03,27.20
2017,06,24,17,04,27.20
2017,06,24,17,05,27.20
2017,06,24,17,06,27.10
2017,06,24,17,07,27.10
2017,06,24,17,08,27.10
2017,06,24,17,09,27.00
2017,06,24,17,10,27.00
2017,06,24,17,11,26.90
2017,06,24,17,12,26.80
2017,06,24,17,13,26.80
2017,06,24,17,14,26.80
2017,06,24,17,15,26.80
2017,06,24,17,16,26.70
2017,06,24,17,17,26.70
2017,06,24,17,18,26.70
2017,06,24,17,19,26.70